TimePST,TemperatureF,Dew PointF,Humidity,Sea Level PressureIn,VisibilityMPH,Wind Direction,Wind SpeedMPH,Gust SpeedMPH,PrecipitationIn,Events,Conditions,WindDirDegrees,DateUTC
12:11 AM,37.4,35.6,93,29.95,6.0,NW,5.8,-,N/A,,Mostly Cloudy,310,2012-11-10 08:11:00
12:19 AM,37.4,35.6,93,29.95,5.0,NW,4.6,-,N/A,,Mostly Cloudy,310,2012-11-10 08:19:00
12:53 AM,37.9,36.0,93,29.96,7.0,WNW,3.5,-,N/A,,Overcast,290,2012-11-10 08:53:00
1:53 AM,37.9,36.0,93,29.98,6.0,Calm,Calm,-,N/A,,Overcast,0,2012-11-10 09:53:00
2:53 AM,37.0,35.1,93,29.99,6.0,Calm,Calm,-,N/A,,Overcast,0,2012-11-10 10:53:00
4:28 AM,37.4,35.6,93,30.01,7.0,WNW,4.6,-,N/A,,Overcast,290,2012-11-10 12:28:00
4:53 AM,37.9,35.1,89,30.02,7.0,Calm,Calm,-,N/A,,Overcast,0,2012-11-10 12:53:00
5:06 AM,37.4,35.6,93,30.02,7.0,Calm,Calm,-,N/A,,Overcast,0,2012-11-10 13:06:00
5:53 AM,37.9,35.1,89,30.04,7.0,Calm,Calm,-,N/A,,Overcast,0,2012-11-10 13:53:00
6:14 AM,37.4,35.6,93,30.04,6.0,Calm,Calm,-,N/A,,Overcast,0,2012-11-10 14:14:00
6:36 AM,35.6,33.8,93,30.04,6.0,Calm,Calm,-,N/A,,Overcast,0,2012-11-10 14:36:00
6:53 AM,35.1,33.1,92,30.05,5.0,Calm,Calm,-,N/A,,Mostly Cloudy,0,2012-11-10 14:53:00
7:34 AM,37.4,35.6,93,30.07,5.0,Calm,Calm,-,N/A,,Overcast,0,2012-11-10 15:34:00
7:53 AM,39.0,36.0,89,30.08,5.0,Calm,Calm,-,N/A,,Overcast,0,2012-11-10 15:53:00
8:09 AM,39.2,35.6,87,30.07,6.0,Calm,Calm,-,N/A,,Overcast,0,2012-11-10 16:09:00
8:53 AM,39.0,35.1,86,30.09,6.0,WNW,3.5,-,N/A,,Overcast,290,2012-11-10 16:53:00
9:00 AM,39.2,35.6,87,30.09,6.0,WNW,3.5,-,N/A,,Overcast,300,2012-11-10 17:00:00
9:09 AM,39.2,35.6,87,30.09,6.0,Calm,Calm,-,N/A,,Overcast,0,2012-11-10 17:09:00
9:35 AM,41.0,35.6,81,30.10,7.0,Calm,Calm,-,N/A,,Overcast,0,2012-11-10 17:35:00
9:53 AM,41.0,35.1,79,30.10,8.0,Calm,Calm,-,N/A,,Overcast,0,2012-11-10 17:53:00
10:23 AM,41.0,35.6,81,30.11,7.0,Calm,Calm,-,N/A,,Overcast,0,2012-11-10 18:23:00
10:46 AM,41.0,35.6,81,30.12,9.0,Calm,Calm,-,N/A,,Overcast,0,2012-11-10 18:46:00
10:53 AM,41.0,35.1,79,30.12,9.0,Calm,Calm,-,N/A,,Overcast,0,2012-11-10 18:53:00
11:53 AM,42.1,33.1,70,30.13,10.0,WSW,3.5,-,N/A,,Overcast,240,2012-11-10 19:53:00
12:53 PM,43.0,33.1,68,30.15,10.0,Calm,Calm,-,N/A,,Overcast,0,2012-11-10 20:53:00
1:41 PM,44.6,33.8,66,30.15,10.0,Calm,Calm,-,N/A,,Overcast,0,2012-11-10 21:41:00
1:53 PM,44.1,34.0,68,30.15,10.0,Calm,Calm,-,N/A,,Overcast,0,2012-11-10 21:53:00
2:53 PM,45.0,34.0,65,30.14,10.0,Calm,Calm,-,N/A,,Mostly Cloudy,0,2012-11-10 22:53:00
3:53 PM,46.0,34.0,63,30.16,10.0,Calm,Calm,-,N/A,,Overcast,0,2012-11-10 23:53:00
4:53 PM,44.1,34.0,68,30.16,10.0,Calm,Calm,-,N/A,,Overcast,0,2012-11-11 00:53:00
5:53 PM,44.1,35.1,71,30.18,10.0,Calm,Calm,-,N/A,,Overcast,0,2012-11-11 01:53:00
6:27 PM,39.2,33.8,81,30.18,10.0,Calm,Calm,-,N/A,,Scattered Clouds,0,2012-11-11 02:27:00
6:53 PM,35.1,32.0,89,30.19,10.0,Calm,Calm,-,N/A,,Scattered Clouds,0,2012-11-11 02:53:00
7:02 PM,37.4,33.8,87,30.19,10.0,Calm,Calm,-,N/A,,Mostly Cloudy,0,2012-11-11 03:02:00
7:25 PM,37.4,33.8,87,30.19,10.0,Calm,Calm,-,N/A,,Mostly Cloudy,0,2012-11-11 03:25:00
8:53 PM,39.0,35.1,86,30.21,10.0,Calm,Calm,-,N/A,,Overcast,0,2012-11-11 04:53:00
9:53 PM,37.0,33.1,86,30.22,7.0,Calm,Calm,-,N/A,,Partly Cloudy,0,2012-11-11 05:53:00
10:23 PM,37.4,33.8,87,30.23,7.0,Calm,Calm,-,N/A,,Overcast,0,2012-11-11 06:23:00
10:53 PM,41.0,36.0,82,30.23,8.0,ESE,3.5,-,N/A,,Overcast,120,2012-11-11 06:53:00
11:10 PM,39.2,35.6,87,30.23,7.0,ESE,3.5,-,N/A,,Mostly Cloudy,110,2012-11-11 07:10:00
11:25 PM,39.2,35.6,87,30.23,8.0,SE,3.5,-,N/A,,Mostly Cloudy,130,2012-11-11 07:25:00
11:53 PM,41.0,36.0,82,30.23,8.0,Calm,Calm,-,N/A,,Overcast,0,2012-11-11 07:53:00